When you browse on this site, cookies collect data to enhance your experience and personalize the content and advertising you see.
Visit our Privacy Policy to learn more. By continuing to use the site, you agree to this use of cookies and data.
  • In United Kingdom
  • List of Countries
  • For 7 days
  • Water Temperature
  • Satellite Maps
  • Weather Map
  • Weather Widgets
  • user-avatar
    Login

    Hourly Weather Santa Maria Petapa

    Today, 20 March, Wednesday

    Time Temperature Precipitation Wind Pressure Humidity
    00:00 +21°C° 0 mm 4 mps 741 mmHg 86%
    01:00 +21°C° 0 mm 4 mps 741 mmHg 86%
    02:00 +21°C° 0 mm 4 mps 741 mmHg 87%
    03:00 +20°C° 0 mm 4 mps 740 mmHg 87%
    04:00 +20°C° 0 mm 4 mps 740 mmHg 88%
    05:00 +20°C° 0 mm 4 mps 740 mmHg 88%
    06:00 +20°C° 0 mm 4 mps 740 mmHg 89%
    07:00 +22°C° 0 mm 4 mps 741 mmHg 82%
    08:00 +23°C° 0 mm 4 mps 741 mmHg 75%
    09:00 +25°C° 0 mm 5 mps 742 mmHg 69%
    10:00 +27°C° 0 mm 5 mps 742 mmHg 63%
    11:00 +29°C° 0 mm 5 mps 741 mmHg 57%
    12:00 +30°C° 0 mm 5 mps 741 mmHg 51%
    13:00 +32°C° 0 mm 5 mps 740 mmHg 50%
    14:00 +32°C° 0 mm 5 mps 739 mmHg 50%
    15:00 +33°C° 0 mm 5 mps 739 mmHg 49%
    16:00 +30°C° 0 mm 5 mps 739 mmHg 55%
    17:00 +29°C° 0 mm 5 mps 739 mmHg 62%
    18:00 +28°C° 0 mm 5 mps 739 mmHg 68%
    19:00 +26°C° 0.1 mm 5 mps 740 mmHg 74%
    20:00 +25°C° 0.1 mm 5 mps 740 mmHg 80%
    21:00 +23°C° 0.1 mm 4 mps 741 mmHg 85%
    22:00 +23°C° 0 mm 4 mps 741 mmHg 86%
    23:00 +23°C° 0 mm 4 mps 741 mmHg 87%

    Tomorrow, 21 March, Thursday

    Time Temperature Precipitation Wind Pressure Humidity
    00:00 +22°C° 0 mm 4 mps 742 mmHg 87%
    01:00 +22°C° 0 mm 4 mps 741 mmHg 88%
    02:00 +22°C° 0 mm 4 mps 741 mmHg 88%
    03:00 +22°C° 0 mm 4 mps 740 mmHg 89%
    04:00 +22°C° 0 mm 4 mps 740 mmHg 89%
    05:00 +22°C° 0 mm 4 mps 741 mmHg 89%
    06:00 +21°C° 0 mm 4 mps 741 mmHg 89%
    07:00 +22°C° 0.1 mm 4 mps 741 mmHg 84%
    08:00 +23°C° 0.1 mm 5 mps 742 mmHg 80%
    09:00 +25°C° 0.1 mm 5 mps 742 mmHg 75%
    10:00 +27°C° 0.1 mm 5 mps 742 mmHg 68%
    11:00 +29°C° 0.1 mm 6 mps 742 mmHg 61%
    12:00 +30°C° 0.1 mm 6 mps 742 mmHg 54%
    13:00 +30°C° 0 mm 6 mps 741 mmHg 53%
    14:00 +30°C° 0 mm 6 mps 740 mmHg 53%
    15:00 +32°C° 0 mm 6 mps 739 mmHg 53%
    16:00 +29°C° 0.1 mm 6 mps 739 mmHg 60%
    17:00 +28°C° 0.1 mm 6 mps 739 mmHg 67%
    18:00 +26°C° 0.1 mm 6 mps 740 mmHg 74%
    19:00 +25°C° 0.1 mm 5 mps 740 mmHg 77%
    20:00 +23°C° 0.1 mm 5 mps 741 mmHg 81%
    21:00 +23°C° 0.1 mm 5 mps 742 mmHg 84%
    22:00 +23°C° 0.1 mm 5 mps 742 mmHg 85%
    23:00 +22°C° 0.1 mm 5 mps 742 mmHg 85%

    Day after tomorrow, 22 March, Friday

    Time Temperature Precipitation Wind Pressure Humidity
    00:00 +22°C° 0.1 mm 5 mps 743 mmHg 86%
    01:00 +22°C° 0.1 mm 5 mps 742 mmHg 86%
    02:00 +22°C° 0.1 mm 5 mps 741 mmHg 87%
    03:00 +21°C° 0.1 mm 4 mps 741 mmHg 87%
    04:00 +21°C° 0 mm 4 mps 741 mmHg 87%
    05:00 +21°C° 0 mm 4 mps 741 mmHg 88%
    06:00 +21°C° 0 mm 4 mps 741 mmHg 88%
    07:00 +22°C° 0 mm 5 mps 742 mmHg 82%
    08:00 +23°C° 0 mm 5 mps 742 mmHg 77%
    09:00 +25°C° 0 mm 5 mps 743 mmHg 71%
    10:00 +27°C° 0 mm 5 mps 742 mmHg 64%
    11:00 +29°C° 0 mm 5 mps 742 mmHg 57%
    12:00 +30°C° 0 mm 5 mps 741 mmHg 50%
    13:00 +32°C° 0 mm 5 mps 740 mmHg 50%
    14:00 +32°C° 0 mm 5 mps 740 mmHg 50%
    15:00 +32°C° 0 mm 5 mps 739 mmHg 50%
    16:00 +30°C° 0 mm 5 mps 739 mmHg 56%
    17:00 +29°C° 0 mm 4 mps 739 mmHg 62%
    18:00 +28°C° 0 mm 4 mps 739 mmHg 68%
    19:00 +26°C° 0 mm 4 mps 739 mmHg 74%
    20:00 +25°C° 0 mm 3 mps 740 mmHg 81%
    21:00 +24°C° 0 mm 3 mps 741 mmHg 87%
    22:00 +24°C° 0 mm 3 mps 741 mmHg 89%
    23:00 +22°C° 0 mm 3 mps 741 mmHg 91%

    23 March, Saturday

    Time Temperature Precipitation Wind Pressure Humidity
    00:00 +23°C° 0 mm 2 mps 741 mmHg 92%
    01:00 +23°C° 0 mm 2 mps 740 mmHg 92%
    02:00 +23°C° 0 mm 2 mps 740 mmHg 91%
    03:00 +23°C° 0 mm 2 mps 739 mmHg 90%
    04:00 +23°C° 0 mm 2 mps 739 mmHg 91%
    05:00 +23°C° 0 mm 2 mps 739 mmHg 91%
    06:00 +23°C° 0 mm 2 mps 739 mmHg 92%
    07:00 +24°C° 0 mm 2 mps 740 mmHg 85%
    08:00 +25°C° 0 mm 2 mps 741 mmHg 79%
    09:00 +27°C° 0 mm 2 mps 741 mmHg 73%
    10:00 +30°C° 0 mm 2 mps 741 mmHg 62%
    11:00 +34°C° 0 mm 2 mps 740 mmHg 51%
    12:00 +36°C° 0 mm 1 mps 740 mmHg 40%
    13:00 +37°C° 0 mm 2 mps 739 mmHg 38%
    14:00 +37°C° 0 mm 2 mps 738 mmHg 37%
    15:00 +38°C° 0 mm 2 mps 737 mmHg 35%
    16:00 +36°C° 0.8 mm 2 mps 738 mmHg 42%
    17:00 +34°C° 0.8 mm 2 mps 738 mmHg 49%
    18:00 +31°C° 0.8 mm 2 mps 738 mmHg 56%
    19:00 +29°C° 0.4 mm 1 mps 739 mmHg 64%
    20:00 +27°C° 0.4 mm 1 mps 739 mmHg 71%
    21:00 +24°C° 0.4 mm 0 mps 740 mmHg 78%
    22:00 +23°C° 0.3 mm 0 mps 740 mmHg 81%
    23:00 +25°C° 0.3 mm 1 mps 740 mmHg 85%

    24 March, Sunday

    Time Temperature Precipitation Wind Pressure Humidity
    00:00 +24°C° 0.3 mm 1 mps 740 mmHg 88%
    01:00 +24°C° 0.3 mm 1 mps 740 mmHg 90%
    02:00 +24°C° 0.3 mm 1 mps 739 mmHg 92%
    03:00 +24°C° 0.3 mm 1 mps 739 mmHg 94%
    04:00 +24°C° 0 mm 2 mps 739 mmHg 93%
    05:00 +24°C° 0 mm 2 mps 739 mmHg 92%
    06:00 +24°C° 0 mm 2 mps 740 mmHg 92%
    07:00 +26°C° 0 mm 2 mps 740 mmHg 85%
    08:00 +27°C° 0 mm 2 mps 741 mmHg 79%
    09:00 +28°C° 0 mm 3 mps 741 mmHg 73%
    10:00 +30°C° 0 mm 3 mps 740 mmHg 64%
    11:00 +33°C° 0 mm 3 mps 740 mmHg 56%
    12:00 +35°C° 0 mm 3 mps 740 mmHg 47%
    13:00 +36°C° 0 mm 3 mps 739 mmHg 45%
    14:00 +36°C° 0 mm 3 mps 738 mmHg 42%
    15:00 +37°C° 0 mm 3 mps 737 mmHg 40%
    16:00 +35°C° 0 mm 3 mps 737 mmHg 46%
    17:00 +34°C° 0 mm 3 mps 737 mmHg 51%
    18:00 +33°C° 0 mm 3 mps 737 mmHg 57%
    19:00 +30°C° 0 mm 2 mps 738 mmHg 67%
    20:00 +28°C° 0 mm 2 mps 738 mmHg 76%
    21:00 +27°C° 0 mm 1 mps 739 mmHg 85%
    22:00 +26°C° 0 mm 1 mps 739 mmHg 88%
    23:00 +25°C° 0 mm 1 mps 739 mmHg 91%

    25 March, Monday

    Time Temperature Precipitation Wind Pressure Humidity
    00:00 +25°C° 0 mm 1 mps 739 mmHg 93%
    01:00 +25°C° 0 mm 1 mps 738 mmHg 94%
    02:00 +24°C° 0 mm 1 mps 738 mmHg 94%
    03:00 +24°C° 0 mm 1 mps 737 mmHg 95%
    04:00 +24°C° 0 mm 1 mps 737 mmHg 95%
    05:00 +23°C° 0 mm 1 mps 738 mmHg 94%
    06:00 +23°C° 0 mm 1 mps 738 mmHg 94%
    07:00 +26°C° 0 mm 1 mps 738 mmHg 84%
    08:00 +28°C° 0 mm 1 mps 739 mmHg 74%
    09:00 +30°C° 0 mm 1 mps 739 mmHg 64%
    10:00 +33°C° 0 mm 1 mps 739 mmHg 54%
    11:00 +35°C° 0 mm 1 mps 738 mmHg 45%
    12:00 +39°C° 0 mm 2 mps 738 mmHg 35%
    13:00 +39°C° 0 mm 2 mps 737 mmHg 33%
    14:00 +39°C° 0 mm 2 mps 737 mmHg 32%
    15:00 +40°C° 0 mm 3 mps 736 mmHg 30%
    16:00 +38°C° 0 mm 2 mps 736 mmHg 37%
    17:00 +36°C° 0 mm 2 mps 736 mmHg 44%
    18:00 +34°C° 0 mm 2 mps 736 mmHg 51%
    19:00 +31°C° 0 mm 2 mps 737 mmHg 62%
    20:00 +29°C° 0 mm 2 mps 738 mmHg 73%
    21:00 +27°C° 0 mm 2 mps 739 mmHg 84%
    22:00 +27°C° 0 mm 2 mps 739 mmHg 86%
    23:00 +26°C° 0 mm 2 mps 739 mmHg 87%
    Show more